QPF
0.00 0.00 0.00 0.00 0.00 0.00 0.00 0.00 0.00 0.00 0.00 0.00 0.00 0.00 0.00 0.00 0.00 0.00 0.00 0.00 0.00 0.00 0.00 0.00 0.00 0.00 0.01 0.01 0.02 0.04 0.05 0.06 0.05 0.05 0.06 0.07 0.06 0.05 0.05 0.07 0.07 0.07 0.06 0.05
0.00 0.00 0.00 0.00 0.00 0.00 0.00 0.00 0.00 0.00 0.00 0.00 0.00 0.01 0.00 0.00 0.01 0.00 0.01 0.01 0.01 0.01 0.01 0.00 0.00 0.00 0.01 0.01 0.02 0.03 0.05 0.07 0.07 0.08 0.08 0.07 0.07 0.06 0.06 0.08 0.07 0.06 0.05 0.05
0.00 0.00 0.00 0.00 0.00 0.00 0.00 0.00 0.00 0.00 0.00 0.00 0.01 0.01 0.01 0.01 0.01 0.01 0.01 0.01 0.01 0.01 0.00 0.00 0.00 0.00 0.01 0.02 0.03 0.04 0.06 0.08 0.10 0.11 0.10 0.08 0.07 0.06 0.05 0.07 0.06 0.04 0.06 0.06
0.00 0.00 0.00 0.00 0.00 0.00 0.00 0.00 0.00 0.01 0.00 0.00 0.00 0.01 0.01 0.01 0.01 0.01 0.01 0.01 0.01 0.00 0.00 0.00 0.01 0.01 0.01 0.02 0.02 0.03 0.04 0.05 0.06 0.07 0.07 0.07 0.07 0.08 0.06 0.05 0.05 0.04 0.03 0.04
0.00 0.00 0.00 0.00 0.00 0.00 0.00 0.00 0.01 0.01 0.00 0.00 0.00 0.01 0.01 0.01 0.01 0.01 0.01 0.01 0.01 0.01 0.01 0.01 0.01 0.01 0.01 0.01 0.01 0.01 0.03 0.04 0.04 0.04 0.06 0.07 0.07 0.07 0.07 0.06 0.04 0.05 0.04 0.03
0.00 0.00 0.00 0.01 0.01 0.00 0.00 0.00 0.00 0.00 0.01 0.00 0.00 0.01 0.01 0.01 0.01 0.01 0.01 0.01 0.01 0.00 0.00 0.00 0.00 0.00 0.00 0.01 0.01 0.02 0.03 0.06 0.05 0.03 0.03 0.05 0.05 0.06 0.06 0.04 0.04 0.05 0.04 0.03
0.00 0.00 0.00 0.01 0.01 0.01 0.00 0.00 0.01 0.01 0.01 0.01 0.01 0.01 0.01 0.01 0.00 0.00 0.00 0.00 0.00 0.00 0.00 0.01 0.01 0.00 0.00 0.00 0.01 0.02 0.03 0.06 0.05 0.03 0.02 0.03 0.04 0.04 0.03 0.04 0.04 0.04 0.04 0.03
0.00 0.00 0.01 0.01 0.01 0.01 0.01 0.01 0.01 0.02 0.02 0.01 0.01 0.01 0.01 0.01 0.00 0.00 0.00 0.00 0.00 0.00 0.00 0.01 0.00 0.00 0.00 0.01 0.01 0.02 0.02 0.03 0.04 0.03 0.02 0.02 0.04 0.03 0.02 0.04 0.03 0.03 0.02 0.02
0.00 0.00 0.00 0.01 0.01 0.01 0.01 0.01 0.01 0.01 0.01 0.01 0.01 0.01 0.01 0.01 0.01 0.01 0.01 0.01 0.01 0.01 0.00 0.01 0.00 0.01 0.01 0.01 0.02 0.02 0.02 0.03 0.04 0.04 0.03 0.02 0.03 0.03 0.03 0.03 0.02 0.01 0.01 0.01
0.00 0.00 0.00 0.00 0.00 0.00 0.00 0.00 0.00 0.01 0.01 0.01 0.01 0.02 0.02 0.01 0.01 0.01 0.01 0.01 0.01 0.01 0.00 0.01 0.01 0.01 0.01 0.01 0.02 0.02 0.02 0.04 0.05 0.05 0.04 0.03 0.03 0.03 0.04 0.04 0.02 0.01 0.01 0.01
0.00 0.00 0.00 0.00 0.00 0.00 0.00 0.00 0.00 0.01 0.01 0.02 0.02 0.02 0.01 0.01 0.01 0.01 0.01 0.01 0.01 0.01 0.01 0.00 0.01 0.01 0.01 0.02 0.02 0.03 0.03 0.03 0.04 0.04 0.05 0.04 0.04 0.04 0.04 0.03 0.03 0.02 0.02 0.02
0.00 0.00 0.00 0.00 0.00 0.00 0.00 0.00 0.01 0.01 0.01 0.01 0.02 0.02 0.01 0.01 0.00 0.00 0.01 0.01 0.01 0.01 0.01 0.01 0.01 0.01 0.02 0.03 0.03 0.03 0.03 0.03 0.04 0.04 0.04 0.03 0.04 0.05 0.04 0.03 0.03 0.02 0.03 0.03
0.00 0.00 0.01 0.00 0.00 0.00 0.00 0.00 0.01 0.02 0.03 0.03 0.03 0.02 0.01 0.01 0.01 0.01 0.01 0.01 0.01 0.01 0.01 0.01 0.01 0.01 0.02 0.03 0.03 0.03 0.02 0.03 0.04 0.04 0.03 0.02 0.03 0.04 0.03 0.04 0.03 0.02 0.02 0.03
0.00 0.01 0.01 0.01 0.01 0.00 0.00 0.01 0.02 0.02 0.03 0.02 0.02 0.02 0.02 0.02 0.02 0.01 0.03 0.02 0.01 0.01 0.01 0.01 0.02 0.03 0.03 0.04 0.03 0.03 0.02 0.02 0.02 0.02 0.02 0.03 0.03 0.03 0.03 0.03 0.03 0.03 0.02 0.03
0.01 0.01 0.01 0.00 0.00 0.00 0.00 0.01 0.02 0.02 0.01 0.03 0.03 0.03 0.03 0.02 0.01 0.01 0.01 0.01 0.01 0.02 0.02 0.02 0.02 0.02 0.03 0.03 0.02 0.02 0.01 0.01 0.01 0.01 0.01 0.02 0.02 0.02 0.02 0.02 0.02 0.02 0.02 0.02
0.01 0.02 0.01 0.01 0.00 0.00 0.01 0.01 0.02 0.02 0.02 0.03 0.04 0.04 0.03 0.02 0.01 0.01 0.01 0.01 0.01 0.02 0.02 0.02 0.02 0.02 0.02 0.02 0.01 0.01 0.01 0.01 0.01 0.00 0.01 0.01 0.01 0.01 0.01 0.01 0.01 0.02 0.02 0.03
0.01 0.02 0.02 0.01 0.01 0.01 0.03 0.02 0.02 0.02 0.03 0.03 0.04 0.04 0.03 0.02 0.01 0.02 0.01 0.01 0.01 0.02 0.02 0.02 0.02 0.01 0.01 0.01 0.01 0.01 0.01 0.01 0.01 0.01 0.01 0.00 0.00 0.00 0.01 0.01 0.02 0.02 0.03 0.04
0.01 0.02 0.02 0.02 0.01 0.02 0.02 0.01 0.01 0.03 0.03 0.03 0.03 0.03 0.03 0.02 0.02 0.02 0.01 0.01 0.01 0.02 0.02 0.02 0.02 0.01 0.01 0.01 0.01 0.01 0.01 0.01 0.01 0.02 0.01 0.01 0.00 0.00 0.00 0.01 0.01 0.02 0.03 0.02
0.01 0.02 0.03 0.03 0.03 0.02 0.02 0.01 0.01 0.03 0.03 0.02 0.03 0.03 0.04 0.04 0.03 0.03 0.02 0.01 0.01 0.02 0.03 0.04 0.02 0.01 0.01 0.01 0.01 0.01 0.01 0.01 0.02 0.02 0.02 0.01 0.01 0.00 0.01 0.01 0.01 0.02 0.02 0.02
0.00 0.01 0.02 0.04 0.04 0.03 0.02 0.01 0.01 0.03 0.04 0.01 0.01 0.02 0.02 0.03 0.04 0.04 0.04 0.03 0.02 0.03 0.04 0.04 0.03 0.02 0.02 0.01 0.01 0.01 0.01 0.01 0.01 0.02 0.02 0.01 0.01 0.01 0.02 0.02 0.02 0.02 0.01 0.02
0.01 0.02 0.02 0.03 0.04 0.02 0.01 0.01 0.01 0.04 0.04 0.02 0.01 0.02 0.03 0.04 0.05 0.05 0.04 0.04 0.04 0.04 0.05 0.05 0.04 0.03 0.02 0.02 0.01 0.01 0.01 0.01 0.01 0.01 0.01 0.01 0.02 0.02 0.03 0.03 0.02 0.02 0.02 0.02
0.02 0.03 0.03 0.03 0.04 0.03 0.01 0.01 0.03 0.04 0.03 0.02 0.02 0.03 0.03 0.03 0.04 0.03 0.02 0.02 0.03 0.03 0.03 0.03 0.03 0.03 0.02 0.01 0.01 0.01 0.01 0.01 0.01 0.01 0.01 0.02 0.02 0.03 0.03 0.03 0.02 0.02 0.02 0.02
0.02 0.03 0.04 0.03 0.03 0.03 0.02 0.03 0.04 0.04 0.04 0.03 0.03 0.03 0.03 0.03 0.02 0.02 0.02 0.02 0.02 0.02 0.02 0.02 0.03 0.03 0.03 0.02 0.01 0.01 0.01 0.01 0.01 0.01 0.02 0.02 0.03 0.03 0.03 0.03 0.02 0.02 0.02 0.02
0.03 0.02 0.03 0.04 0.03 0.02 0.02 0.03 0.04 0.05 0.05 0.04 0.04 0.03 0.03 0.03 0.03 0.03 0.03 0.02 0.01 0.02 0.01 0.02 0.02 0.03 0.04 0.03 0.02 0.02 0.02 0.02 0.03 0.03 0.03 0.04 0.04 0.04 0.04 0.03 0.03 0.03 0.03 0.03
0.04 0.03 0.04 0.05 0.05 0.04 0.03 0.03 0.04 0.04 0.04 0.04 0.04 0.03 0.03 0.03 0.03 0.02 0.02 0.01 0.01 0.01 0.01 0.02 0.03 0.03 0.04 0.04 0.03 0.02 0.02 0.03 0.03 0.03 0.03 0.02 0.02 0.01 0.01 0.01 0.02 0.02 0.02 0.03
0.05 0.04 0.04 0.05 0.04 0.04 0.04 0.04 0.03 0.04 0.04 0.03 0.02 0.02 0.02 0.02 0.02 0.01 0.01 0.01 0.01 0.01 0.01 0.01 0.02 0.03 0.03 0.03 0.03 0.02 0.01 0.01 0.02 0.01 0.01 0.01 0.01 0.01 0.00 0.00 0.00 0.00 0.00 0.01
MSLP
1009.92 1010.28 1010.49 1010.57 1010.56 1010.50 1010.43 1010.37 1010.31 1010.24 1010.12 1009.91 1009.58 1009.15 1008.64 1008.11 1007.63 1007.26 1007.08 1007.10 1007.32 1007.73 1008.26 1008.84 1009.42 1009.94 1010.37 1010.70 1010.95 1011.14 1011.30 1011.44 1011.59 1011.75 1011.92 1012.09 1012.25 1012.41 1012.57 1012.73 1012.91 1013.12 1013.36 1013.63
1010.02 1010.30 1010.45 1010.50 1010.48 1010.45 1010.44 1010.45 1010.46 1010.44 1010.34 1010.11 1009.74 1009.23 1008.63 1008.00 1007.44 1007.01 1006.80 1006.83 1007.09 1007.56 1008.16 1008.82 1009.46 1010.02 1010.48 1010.83 1011.09 1011.29 1011.45 1011.63 1011.82 1012.03 1012.26 1012.49 1012.70 1012.88 1013.04 1013.19 1013.33 1013.48 1013.66 1013.88
1009.91 1010.11 1010.21 1010.24 1010.24 1010.27 1010.34 1010.44 1010.53 1010.56 1010.48 1010.22 1009.79 1009.18 1008.46 1007.72 1007.06 1006.57 1006.32 1006.36 1006.68 1007.22 1007.91 1008.66 1009.39 1010.03 1010.54 1010.93 1011.21 1011.42 1011.61 1011.80 1012.03 1012.29 1012.56 1012.84 1013.09 1013.30 1013.47 1013.60 1013.72 1013.84 1013.98 1014.16
1009.65 1009.77 1009.81 1009.83 1009.88 1009.98 1010.14 1010.34 1010.52 1010.61 1010.54 1010.25 1009.74 1009.03 1008.18 1007.32 1006.54 1005.98 1005.70 1005.74 1006.10 1006.72 1007.51 1008.38 1009.21 1009.94 1010.53 1010.97 1011.29 1011.53 1011.74 1011.96 1012.22 1012.51 1012.83 1013.14 1013.44 1013.68 1013.87 1014.01 1014.12 1014.22 1014.34 1014.50
1009.36 1009.38 1009.37 1009.38 1009.46 1009.63 1009.89 1010.19 1010.46 1010.60 1010.54 1010.23 1009.65 1008.83 1007.87 1006.88 1006.00 1005.36 1005.04 1005.08 1005.48 1006.16 1007.05 1008.01 1008.94 1009.77 1010.44 1010.95 1011.32 1011.60 1011.84 1012.10 1012.38 1012.71 1013.06 1013.42 1013.75 1014.03 1014.25 1014.41 1014.53 1014.64 1014.76 1014.93
1009.16 1009.09 1009.02 1009.01 1009.11 1009.34 1009.68 1010.06 1010.39 1010.58 1010.54 1010.20 1009.56 1008.67 1007.61 1006.52 1005.56 1004.85 1004.49 1004.52 1004.93 1005.66 1006.61 1007.65 1008.66 1009.57 1010.31 1010.88 1011.31 1011.63 1011.91 1012.19 1012.52 1012.88 1013.28 1013.68 1014.06 1014.38 1014.64 1014.83 1014.98 1015.10 1015.24 1015.42
1009.18 1009.01 1008.88 1008.84 1008.94 1009.20 1009.57 1010.00 1010.38 1010.59 1010.56 1010.21 1009.55 1008.61 1007.49 1006.35 1005.33 1004.57 1004.17 1004.19 1004.60 1005.34 1006.31 1007.39 1008.45 1009.40 1010.19 1010.80 1011.27 1011.63 1011.95 1012.27 1012.63 1013.04 1013.48 1013.93 1014.36 1014.73 1015.03 1015.26 1015.45 1015.60 1015.77 1015.96
1009.48 1009.24 1009.04 1008.96 1009.03 1009.26 1009.64 1010.06 1010.45 1010.67 1010.64 1010.30 1009.63 1008.69 1007.57 1006.41 1005.38 1004.61 1004.19 1004.18 1004.57 1005.29 1006.25 1007.31 1008.36 1009.31 1010.11 1010.74 1011.23 1011.62 1011.97 1012.33 1012.73 1013.18 1013.67 1014.17 1014.65 1015.08 1015.43 1015.71 1015.93 1016.12 1016.30 1016.51
1010.08 1009.78 1009.52 1009.38 1009.39 1009.57 1009.89 1010.27 1010.62 1010.82 1010.78 1010.44 1009.80 1008.89 1007.82 1006.71 1005.71 1004.96 1004.54 1004.52 1004.87 1005.54 1006.43 1007.43 1008.43 1009.34 1010.11 1010.72 1011.21 1011.61 1011.98 1012.37 1012.81 1013.30 1013.84 1014.40 1014.94 1015.42 1015.82 1016.15 1016.41 1016.62 1016.82 1017.04
1010.89 1010.56 1010.26 1010.06 1009.99 1010.08 1010.30 1010.58 1010.85 1010.99 1010.93 1010.61 1010.01 1009.17 1008.19 1007.17 1006.25 1005.55 1005.16 1005.12 1005.42 1006.02 1006.82 1007.72 1008.62 1009.45 1010.16 1010.73 1011.20 1011.59 1011.98 1012.39 1012.86 1013.40 1013.99 1014.60 1015.19 1015.73 1016.19 1016.56 1016.85 1017.09 1017.30 1017.52
1011.80 1011.47 1011.15 1010.89 1010.73 1010.70 1010.78 1010.94 1011.09 1011.14 1011.04 1010.71 1010.17 1009.42 1008.55 1007.66 1006.85 1006.23 1005.89 1005.84 1006.10 1006.61 1007.30 1008.09 1008.87 1009.59 1010.22 1010.74 1011.17 1011.56 1011.95 1012.38 1012.89 1013.46 1014.10 1014.76 1015.40 1015.99 1016.50 1016.92 1017.25 1017.52 1017.74 1017.95
1012.65 1012.36 1012.03 1011.72 1011.47 1011.31 1011.25 1011.25 1011.25 1011.20 1011.03 1010.70 1010.20 1009.55 1008.81 1008.05 1007.37 1006.85 1006.56 1006.52 1006.74 1007.17 1007.75 1008.41 1009.07 1009.69 1010.23 1010.69 1011.09 1011.47 1011.87 1012.33 1012.86 1013.47 1014.15 1014.85 1015.54 1016.19 1016.75 1017.22 1017.59 1017.89 1018.12 1018.34
1013.33 1013.09 1012.77 1012.43 1012.10 1011.82 1011.61 1011.44 1011.29 1011.12 1010.87 1010.52 1010.06 1009.49 1008.87 1008.24 1007.69 1007.27 1007.04 1007.01 1007.19 1007.55 1008.03 1008.58 1009.14 1009.67 1010.14 1010.56 1010.94 1011.33 1011.74 1012.22 1012.78 1013.43 1014.13 1014.87 1015.61 1016.30 1016.91 1017.44 1017.86 1018.20 1018.47 1018.69
1013.76 1013.58 1013.28 1012.92 1012.53 1012.15 1011.80 1011.49 1011.20 1010.90 1010.58 1010.20 1009.75 1009.25 1008.73 1008.22 1007.77 1007.44 1007.25 1007.23 1007.38 1007.68 1008.08 1008.54 1009.02 1009.48 1009.91 1010.32 1010.71 1011.11 1011.56 1012.07 1012.65 1013.32 1014.05 1014.82 1015.59 1016.32 1016.99 1017.57 1018.06 1018.45 1018.77 1019.02
1013.94 1013.80 1013.54 1013.17 1012.74 1012.28 1011.83 1011.40 1010.99 1010.60 1010.20 1009.78 1009.35 1008.90 1008.44 1008.01 1007.64 1007.37 1007.21 1007.19 1007.31 1007.55 1007.88 1008.27 1008.70 1009.13 1009.56 1009.97 1010.39 1010.83 1011.32 1011.87 1012.48 1013.17 1013.92 1014.70 1015.50 1016.26 1016.98 1017.62 1018.17 1018.64 1019.01 1019.32
1013.90 1013.79 1013.55 1013.19 1012.75 1012.26 1011.74 1011.24 1010.75 1010.28 1009.83 1009.39 1008.95 1008.52 1008.11 1007.73 1007.40 1007.15 1007.00 1006.96 1007.03 1007.21 1007.49 1007.83 1008.22 1008.65 1009.09 1009.54 1010.01 1010.51 1011.05 1011.64 1012.29 1013.00 1013.76 1014.55 1015.35 1016.14 1016.89 1017.59 1018.20 1018.74 1019.19 1019.56
1013.71 1013.62 1013.40 1013.06 1012.63 1012.13 1011.60 1011.06 1010.54 1010.03 1009.56 1009.11 1008.67 1008.26 1007.86 1007.50 1007.18 1006.92 1006.74 1006.65 1006.66 1006.78 1006.99 1007.29 1007.66 1008.08 1008.55 1009.06 1009.59 1010.16 1010.76 1011.41 1012.09 1012.82 1013.58 1014.37 1015.17 1015.97 1016.74 1017.48 1018.15 1018.75 1019.27 1019.70
1013.46 1013.37 1013.16 1012.84 1012.44 1011.96 1011.46 1010.94 1010.42 1009.93 1009.46 1009.01 1008.59 1008.18 1007.79 1007.41 1007.07 1006.77 1006.53 1006.37 1006.29 1006.33 1006.46 1006.71 1007.05 1007.48 1007.98 1008.54 1009.15 1009.79 1010.46 1011.16 1011.89 1012.63 1013.39 1014.18 1014.97 1015.76 1016.54 1017.30 1018.01 1018.66 1019.23 1019.73
1013.20 1013.09 1012.88 1012.59 1012.22 1011.80 1011.35 1010.88 1010.41 1009.96 1009.52 1009.10 1008.69 1008.29 1007.89 1007.50 1007.11 1006.75 1006.43 1006.17 1005.99 1005.92 1005.97 1006.15 1006.45 1006.87 1007.39 1008.00 1008.67 1009.39 1010.14 1010.90 1011.67 1012.44 1013.21 1013.98 1014.76 1015.54 1016.31 1017.06 1017.79 1018.47 1019.08 1019.63
1012.95 1012.81 1012.59 1012.32 1012.00 1011.63 1011.24 1010.84 1010.44 1010.04 1009.66 1009.28 1008.90 1008.51 1008.10 1007.68 1007.24 1006.81 1006.40 1006.04 1005.76 1005.58 1005.53 1005.62 1005.87 1006.26 1006.79 1007.43 1008.16 1008.95 1009.77 1010.60 1011.42 1012.22 1013.01 1013.78 1014.54 1015.30 1016.05 1016.79 1017.50 1018.19 1018.82 1019.39
1012.70 1012.51 1012.28 1012.02 1011.72 1011.40 1011.06 1010.72 1010.38 1010.04 1009.71 1009.38 1009.03 1008.65 1008.25 1007.81 1007.34 1006.85 1006.37 1005.92 1005.53 1005.25 1005.10 1005.11 1005.29 1005.65 1006.17 1006.83 1007.60 1008.45 1009.33 1010.23 1011.11 1011.96 1012.78 1013.56 1014.31 1015.04 1015.76 1016.47 1017.17 1017.84 1018.47 1019.05
1012.41 1012.16 1011.90 1011.61 1011.32 1011.01 1010.70 1010.40 1010.10 1009.80 1009.50 1009.20 1008.88 1008.53 1008.15 1007.71 1007.23 1006.72 1006.19 1005.69 1005.23 1004.87 1004.64 1004.58 1004.70 1005.01 1005.51 1006.18 1006.98 1007.88 1008.83 1009.80 1010.74 1011.65 1012.50 1013.30 1014.05 1014.76 1015.45 1016.12 1016.79 1017.43 1018.05 1018.63
1012.03 1011.72 1011.39 1011.06 1010.73 1010.40 1010.07 1009.76 1009.45 1009.16 1008.87 1008.59 1008.29 1007.97 1007.62 1007.21 1006.76 1006.27 1005.76 1005.25 1004.78 1004.39 1004.12 1004.01 1004.09 1004.37 1004.86 1005.52 1006.34 1007.27 1008.28 1009.30 1010.30 1011.26 1012.15 1012.98 1013.73 1014.44 1015.10 1015.74 1016.37 1016.99 1017.59 1018.16
1011.53 1011.14 1010.73 1010.32 1009.91 1009.50 1009.11 1008.73 1008.37 1008.03 1007.72 1007.42 1007.14 1006.85 1006.55 1006.21 1005.84 1005.43 1005.00 1004.56 1004.14 1003.78 1003.53 1003.43 1003.50 1003.77 1004.23 1004.90 1005.72 1006.67 1007.71 1008.77 1009.82 1010.82 1011.75 1012.60 1013.37 1014.07 1014.71 1015.32 1015.92 1016.51 1017.09 1017.66
1010.91 1010.42 1009.91 1009.38 1008.86 1008.33 1007.81 1007.31 1006.85 1006.42 1006.04 1005.71 1005.42 1005.17 1004.94 1004.71 1004.46 1004.20 1003.91 1003.61 1003.32 1003.08 1002.91 1002.86 1002.96 1003.24 1003.71 1004.36 1005.18 1006.13 1007.17 1008.25 1009.32 1010.35 1011.30 1012.17 1012.94 1013.63 1014.26 1014.86 1015.43 1016.00 1016.56 1017.14
1010.18 1009.58 1008.96 1008.30 1007.63 1006.94 1006.26 1005.60 1004.99 1004.43 1003.95 1003.56 1003.26 1003.04 1002.89 1002.79 1002.72 1002.65 1002.57 1002.49 1002.40 1002.33 1002.30 1002.36 1002.54 1002.86 1003.34 1003.99 1004.78 1005.71 1006.73 1007.79 1008.85 1009.86 1010.81 1011.68 1012.45 1013.13 1013.75 1014.33 1014.89 1015.45 1016.01 1016.59
Thickness
5761 5756 5755 5760 5763 5763 5760 5756 5756 5764 5773 5765 5762 5764 5769 5773 5771 5769 5769 5768 5767 5766 5767 5765 5762 5759 5756 5752 5748 5744 5740 5736 5734 5732 5730 5727 5725 5725 5724 5722 5720 5719 5718 5717
5751 5751 5764 5766 5763 5757 5754 5750 5755 5762 5766 5759 5758 5760 5768 5769 5767 5767 5765 5764 5763 5761 5761 5759 5757 5755 5751 5748 5745 5741 5736 5734 5731 5729 5727 5725 5723 5722 5721 5719 5717 5716 5715 5713
5748 5762 5766 5758 5754 5749 5751 5751 5753 5752 5758 5759 5752 5753 5761 5766 5767 5765 5764 5763 5762 5759 5756 5754 5752 5750 5748 5745 5742 5739 5735 5731 5728 5726 5724 5721 5718 5717 5716 5714 5714 5713 5712 5710
5753 5763 5757 5752 5751 5750 5747 5759 5754 5749 5745 5751 5751 5741 5757 5761 5758 5759 5759 5758 5757 5757 5755 5753 5750 5748 5746 5744 5741 5737 5733 5729 5726 5724 5722 5718 5716 5713 5713 5712 5712 5710 5708 5707
5752 5757 5751 5747 5753 5753 5753 5759 5752 5749 5745 5744 5749 5739 5751 5758 5750 5754 5754 5753 5754 5754 5753 5751 5749 5747 5745 5742 5738 5734 5730 5726 5723 5721 5719 5716 5715 5713 5712 5710 5707 5705 5705 5704
5754 5761 5756 5754 5757 5755 5754 5750 5748 5748 5745 5730 5743 5736 5740 5753 5750 5752 5752 5750 5749 5750 5750 5748 5747 5744 5740 5738 5734 5731 5726 5722 5720 5718 5716 5713 5711 5710 5708 5706 5704 5703 5702 5701
5743 5751 5756 5756 5746 5747 5745 5735 5727 5728 5730 5734 5748 5735 5737 5751 5754 5751 5749 5748 5747 5747 5746 5744 5742 5739 5735 5732 5729 5726 5722 5717 5716 5714 5712 5710 5708 5706 5704 5703 5702 5701 5700 5698
5732 5735 5748 5750 5744 5739 5739 5734 5720 5712 5721 5737 5740 5731 5742 5749 5750 5750 5748 5747 5745 5743 5742 5740 5738 5734 5730 5727 5724 5721 5717 5714 5712 5710 5708 5707 5706 5706 5705 5701 5701 5699 5698 5696
5732 5732 5749 5749 5749 5744 5735 5734 5743 5730 5728 5724 5733 5736 5742 5743 5741 5741 5741 5740 5739 5738 5738 5736 5733 5730 5726 5723 5720 5718 5714 5711 5709 5707 5706 5704 5703 5702 5701 5699 5697 5696 5694 5693
5735 5723 5739 5746 5746 5743 5743 5741 5731 5722 5707 5707 5723 5726 5729 5732 5733 5735 5734 5734 5734 5734 5732 5730 5727 5725 5722 5719 5716 5713 5711 5708 5706 5706 5704 5703 5701 5699 5697 5696 5694 5693 5691 5689
5732 5718 5727 5734 5730 5732 5730 5729 5726 5724 5720 5706 5706 5719 5737 5731 5731 5730 5731 5732 5731 5730 5728 5725 5723 5721 5718 5715 5712 5708 5706 5704 5703 5702 5700 5698 5696 5695 5693 5692 5690 5689 5687 5685
5724 5719 5715 5726 5740 5742 5736 5731 5725 5709 5708 5711 5707 5714 5735 5730 5729 5728 5727 5727 5727 5725 5723 5721 5717 5714 5711 5709 5707 5704 5703 5701 5698 5696 5694 5693 5692 5690 5689 5688 5686 5685 5683 5682
5715 5707 5699 5708 5719 5726 5724 5726 5726 5722 5714 5707 5701 5709 5727 5725 5723 5723 5722 5721 5719 5717 5716 5713 5710 5707 5705 5704 5702 5700 5697 5695 5693 5691 5689 5688 5686 5685 5684 5683 5681 5680 5679 5677
5707 5703 5699 5698 5708 5717 5713 5715 5717 5713 5705 5702 5703 5708 5715 5715 5714 5714 5714 5714 5713 5711 5708 5705 5702 5699 5698 5697 5695 5693 5691 5689 5688 5686 5684 5682 5680 5680 5679 5677 5676 5675 5674 5672
5698 5694 5700 5705 5710 5710 5707 5707 5708 5705 5706 5699 5702 5703 5705 5707 5707 5708 5708 5707 5706 5704 5701 5698 5695 5692 5691 5689 5688 5686 5685 5684 5682 5680 5678 5676 5675 5674 5673 5672 5670 5670 5669 5668
5685 5683 5688 5690 5699 5700 5697 5700 5701 5700 5700 5698 5699 5696 5702 5703 5703 5700 5699 5697 5696 5696 5695 5693 5689 5686 5685 5683 5681 5680 5679 5678 5676 5674 5673 5671 5670 5668 5667 5666 5665 5664 5663 5662
5675 5673 5672 5679 5689 5687 5681 5689 5691 5691 5691 5689 5685 5688 5693 5692 5692 5691 5691 5690 5690 5689 5689 5686 5683 5681 5679 5678 5677 5675 5674 5673 5671 5669 5668 5666 5664 5663 5661 5661 5659 5658 5656 5656
5663 5663 5668 5672 5671 5659 5674 5686 5685 5681 5679 5680 5680 5681 5683 5683 5685 5686 5686 5685 5682 5682 5681 5680 5679 5676 5675 5674 5673 5671 5670 5668 5666 5664 5662 5661 5659 5658 5656 5655 5653 5652 5651 5650
5661 5657 5660 5663 5661 5664 5666 5671 5670 5667 5665 5670 5670 5671 5674 5677 5679 5678 5678 5676 5675 5675 5674 5673 5673 5672 5670 5669 5667 5666 5664 5662 5660 5658 5656 5655 5654 5652 5651 5649 5648 5647 5646 5646
5656 5655 5653 5654 5649 5649 5653 5664 5669 5664 5655 5661 5661 5661 5664 5667 5666 5667 5668 5667 5668 5667 5667 5667 5668 5667 5664 5662 5661 5659 5658 5656 5654 5653 5652 5650 5648 5647 5645 5644 5643 5642 5642 5642
5641 5642 5642 5643 5643 5643 5648 5657 5660 5643 5641 5650 5652 5652 5653 5654 5654 5657 5660 5660 5659 5660 5661 5662 5661 5660 5658 5657 5655 5653 5652 5650 5649 5648 5646 5644 5643 5641 5640 5638 5638 5637 5637 5637
5629 5631 5631 5634 5630 5629 5638 5642 5635 5631 5638 5641 5642 5643 5643 5644 5646 5649 5651 5651 5651 5652 5653 5654 5654 5653 5652 5651 5649 5647 5646 5645 5644 5642 5640 5638 5637 5636 5635 5633 5632 5632 5631 5631
5618 5617 5620 5620 5619 5621 5626 5626 5626 5628 5629 5631 5633 5635 5635 5637 5639 5642 5643 5644 5644 5645 5645 5646 5647 5646 5646 5645 5644 5642 5640 5639 5637 5635 5633 5632 5631 5630 5630 5628 5627 5628 5628 5628
5607 5608 5608 5609 5614 5615 5617 5619 5619 5620 5622 5624 5626 5627 5628 5629 5632 5634 5636 5637 5638 5638 5639 5639 5640 5639 5638 5638 5638 5637 5635 5633 5631 5629 5628 5627 5626 5626 5625 5625 5626 5626 5625 5624
5597 5599 5598 5598 5602 5606 5608 5610 5610 5612 5615 5617 5618 5620 5621 5623 5624 5626 5627 5629 5631 5632 5632 5633 5633 5633 5632 5631 5631 5630 5629 5627 5625 5623 5623 5622 5622 5622 5621 5621 5621 5621 5621 5620
5591 5589 5588 5590 5594 5595 5597 5602 5605 5606 5608 5610 5611 5613 5615 5616 5616 5618 5620 5622 5623 5624 5625 5625 5626 5626 5626 5626 5624 5624 5623 5621 5619 5618 5618 5619 5619 5619 5618 5618 5617 5614 5613 5611